Waarnemingen

Advertentie
Mijn weer
Bale-Mulhouse, Frankrijk (7299): temperatuur & dauwpunt: 13.08.2019 23:00:00 - 19.08.2019 23:00:00 (CEST)Bale-Mulhouse, Frankrijk (7299): temperatuur 5cm: 13.08.2019 23:00:00 - 19.08.2019 23:00:00 (CEST)Bale-Mulhouse, Frankrijk (7299): temperatuur -20cm & temperatuur -100cm: 13.08.2019 23:00:00 - 19.08.2019 23:00:00 (CEST)Bale-Mulhouse, Frankrijk (7299): windsnelheid & windstoten: 13.08.2019 23:00:00 - 19.08.2019 23:00:00 (CEST)Bale-Mulhouse, Frankrijk (7299): windrichting: 13.08.2019 23:00:00 - 19.08.2019 23:00:00 (CEST)Bale-Mulhouse, Frankrijk (7299): luchtdruk: 13.08.2019 23:00:00 - 19.08.2019 23:00:00 (CEST)Bale-Mulhouse, Frankrijk (7299): zicht: 13.08.2019 23:00:00 - 19.08.2019 23:00:00 (CEST)Bale-Mulhouse, Frankrijk (7299): neerslag: 13.08.2019 23:00:00 - 19.08.2019 23:00:00 (CEST)
Datum & Tijd tt [°C] td [°C] tt 5cm [°C] tt -20cm [°C] tt -100cm [°C] ff [km/u] ff [kn] fx [km/u] fx [kn] dd ppp [hPa] vv [km] rr [mm]
19.08.2019 23:00:00 - - - - - - - - - - - - -
19.08.2019 22:00:00 17,9 16,4 16,8 22,1 21,7 5 3 11 6 ZO 1020,2 25 0,0
19.08.2019 21:00:00 18,5 16,7 17,4 22,1 21,7 8 4 17 9 OZO 1019,4 25 0,0
19.08.2019 20:00:00 18,7 17,0 17,9 22,2 21,7 5 3 10 5 ONO 1018,9 25 0,0
19.08.2019 19:00:00 18,8 16,8 17,7 22,2 21,7 5 3 15 8 ZZO 1019,1 50 0,2
19.08.2019 18:00:00 18,6 16,4 17,5 22,2 21,7 6 3 16 9 ZZO 1019,3 7 0,8
19.08.2019 17:00:00 18,8 16,2 18,4 22,1 21,7 9 5 16 9 ZW 1019,3 20 0,2
19.08.2019 16:00:00 19,5 17,3 18,6 22,1 21,7 6 3 20 11 ZZW 1019,0 30 0,2
19.08.2019 15:00:00 19,2 17,0 18,9 22,1 21,7 13 7 20 11 ZZW 1018,7 4,0 0,6
19.08.2019 14:00:00 20,0 17,0 18,8 22,0 21,7 10 6 19 10 ZW 1018,3 40 0,0
19.08.2019 13:00:00 18,9 17,0 18,4 21,9 21,7 8 4 16 9 Z 1018,4 30 0,6
19.08.2019 12:00:00 18,8 15,8 20,9 21,9 21,6 10 5 18 10 WZW 1018,1 30 0,0
19.08.2019 11:00:00 18,7 16,7 18,7 21,9 21,7 9 5 18 10 ZW 1017,7 30 0,0
19.08.2019 10:00:00 18,0 16,7 18,1 21,9 21,6 12 6 20 11 ZZW 1017,6 58 0,6
19.08.2019 09:00:00 17,6 17,1 17,8 22,0 21,6 6 4 12 6 ZZW 1017,4 2,0 1,3
19.08.2019 08:00:00 17,5 17,2 17,3 22,2 21,6 4 2 16 9 W 1017,1 20 3,6
19.08.2019 07:00:00 17,7 17,1 17,7 22,3 21,6 6 4 20 11 W 1016,5 6 5,1
19.08.2019 06:00:00 18,3 18,0 18,0 22,3 21,6 9 5 14 8 ZO 1015,7 20 0,4
19.08.2019 05:00:00 18,2 17,7 18,1 22,4 21,6 6 4 12 6 O 1015,6 20 0,4
19.08.2019 04:00:00 18,3 17,8 18,2 22,5 21,7 8 4 13 7 ZZO 1016,0 29 0,4
19.08.2019 03:00:00 18,5 18,0 18,1 22,6 21,6 6 3 12 6 ZZO 1015,6 11 0,2
19.08.2019 02:00:00 18,2 17,7 17,9 22,8 21,6 5 3 24 13 Z 1015,4 13 0,8
19.08.2019 01:00:00 18,3 17,8 17,3 23,0 21,6 14 8 22 12 O 1015,3 8 3,4
19.08.2019 00:00:00 17,7 16,7 16,6 23,2 21,6 12 7 20 11 ZZO 1015,5 8 1,7
18.08.2019 23:00:00 16,9 16,3 15,8 23,4 21,6 11 6 69 38 Z 1013,7 5 12,6
18.08.2019 22:00:00 21,4 16,6 19,8 23,5 21,6 29 15 75 40 W 1013,1 20 0,0
18.08.2019 21:00:00 23,2 17,9 21,6 23,5 21,6 7 4 13 7 WZW 1010,1 35 0,0
18.08.2019 20:00:00 26,5 17,0 25,0 23,4 21,6 5 3 24 13 N 1008,9 35 0,0
18.08.2019 19:00:00 28,1 17,3 27,1 23,3 21,6 14 8 26 14 WNW 1009,0 35 0,0
18.08.2019 18:00:00 29,0 17,5 28,1 23,2 21,6 9 5 27 14 WNW 1008,9 50 0,0
18.08.2019 17:00:00 28,2 16,1 28,4 22,9 21,6 16 9 46 25 W 1009,2 50 0,0
18.08.2019 16:00:00 30,5 16,9 32,2 22,6 21,6 19 10 48 26 WNW 1008,7 50 0,0
18.08.2019 15:00:00 30,6 16,2 32,6 22,3 21,6 17 9 33 18 WNW 1008,5 30 0,0
18.08.2019 14:00:00 30,1 17,5 32,5 22,0 21,6 16 9 29 15 WNW 1007,9 50 0,0
18.08.2019 13:00:00 30,0 14,9 33,2 21,7 21,6 3 2 15 8 NW 1008,0 50 0,0
18.08.2019 12:00:00 28,7 16,6 31,5 21,5 21,6 7 4 16 9 O 1008,6 50 0,0
18.08.2019 11:00:00 26,1 16,6 26,3 21,5 21,6 7 4 19 10 OZO 1009,3 50 0,0
18.08.2019 10:00:00 23,3 16,8 22,5 21,5 21,6 12 6 20 11 ZZO 1009,8 50 0,0
18.08.2019 09:00:00 21,4 15,9 19,6 21,6 21,7 10 6 18 10 ZZO 1010,3 50 0,0
18.08.2019 08:00:00 18,9 15,4 15,9 21,6 21,7 7 4 18 10 Z 1010,5 35 0,0
18.08.2019 07:00:00 16,8 14,8 14,1 21,8 21,7 11 6 18 10 Z 1010,9 35 0,0
18.08.2019 06:00:00 16,1 14,6 13,6 21,9 21,6 7 4 12 6 Z 1011,2 45 0,0
18.08.2019 05:00:00 16,5 15,0 14,2 22,0 21,7 6 4 13 7 ZZO 1011,4 45 0,0
18.08.2019 04:00:00 16,1 14,8 14,1 22,1 21,7 4 2 14 8 Z 1011,9 26 0,0
18.08.2019 03:00:00 15,9 15,1 14,2 22,2 21,7 0 0 9 5 N 1012,1 23 0,0
18.08.2019 02:00:00 16,8 15,8 16,1 22,3 21,7 9 5 15 8 N 1012,2 34 0,0
18.08.2019 01:00:00 18,2 16,4 17,8 22,3 21,6 9 5 19 10 N 1011,8 39 0,0
18.08.2019 00:00:00 20,1 15,5 18,3 22,4 21,7 8 4 18 10 ZZO 1011,4 47 0,0
17.08.2019 23:00:00 21,5 15,3 20,2 22,4 21,7 6 3 19 10 Z 1011,2 45 0,0
17.08.2019 22:00:00 22,1 15,0 20,9 22,5 21,7 10 5 17 9 ZO 1011,5 45 0,0
17.08.2019 21:00:00 22,6 15,2 21,1 22,5 21,7 9 5 20 11 OZO 1011,8 50 0,0
17.08.2019 20:00:00 23,4 15,2 22,6 22,4 21,7 12 7 20 11 OZO 1012,0 50 0,0
17.08.2019 19:00:00 23,8 15,3 23,2 22,3 21,7 10 6 14 8 ZZO 1012,2 50 0,0
17.08.2019 18:00:00 25,0 14,5 25,8 22,2 21,7 7 4 18 10 ZO 1012,3 50 0,0
17.08.2019 17:00:00 24,3 14,7 24,0 22,1 21,7 9 5 13 7 ZZO 1012,3 50 0,0
17.08.2019 16:00:00 23,7 14,9 24,0 21,9 21,7 7 4 11 6 ZZO 1012,6 50 0,0
17.08.2019 15:00:00 24,2 14,3 24,8 21,8 21,7 6 3 13 7 ZW 1013,0 50 0,0
17.08.2019 14:00:00 23,8 13,9 24,9 21,7 21,7 8 5 18 10 W 1013,6 50 0,0
17.08.2019 13:00:00 23,8 14,5 24,9 21,5 21,7 6 4 14 8 W 1013,9 50 0,0
17.08.2019 12:00:00 23,1 14,4 23,2 21,5 21,7 3 1 11 6 Z 1014,6 50 0,0
17.08.2019 11:00:00 22,5 13,6 19,9 21,4 21,7 5 3 19 10 ZO 1014,6 50 0,0
17.08.2019 10:00:00 19,0 13,2 17,6 21,5 21,7 10 5 25 13 ZO 1015,0 50 0,0
17.08.2019 09:00:00 17,6 12,7 16,3 21,6 21,7 15 8 22 12 ZO 1014,8 50 0,0
17.08.2019 08:00:00 16,4 12,6 15,3 21,6 21,7 10 5 18 10 Z 1014,9 50 0,0
17.08.2019 07:00:00 15,8 12,0 14,8 21,7 21,7 10 5 18 10 Z 1014,6 50 0,0
17.08.2019 06:00:00 15,5 12,1 14,6 21,8 21,7 11 6 19 11 Z 1014,7 50 0,0
17.08.2019 05:00:00 15,3 12,2 14,0 22,0 21,7 9 5 15 8 Z 1015,2 50 0,0
17.08.2019 04:00:00 15,0 12,7 12,2 22,1 21,7 9 5 13 7 Z 1015,0 33 0,0
17.08.2019 03:00:00 15,1 12,4 13,0 22,3 21,7 7 4 16 9 Z 1015,2 35 0,0
17.08.2019 02:00:00 15,9 12,6 12,5 22,3 21,7 10 5 16 9 Z 1015,3 34 0,0
17.08.2019 01:00:00 16,0 13,3 13,7 22,5 21,7 6 3 11 6 Z 1015,7 46 0,0
17.08.2019 00:00:00 16,0 14,0 14,2 22,6 21,7 3 1 6 4 ZW 1015,4 37 0,0
16.08.2019 23:00:00 17,4 14,1 15,3 22,7 21,8 6 3 10 5 Z 1015,5 40 0,0
16.08.2019 22:00:00 17,7 14,6 15,3 22,7 21,8 6 3 13 7 Z 1015,5 40 0,0
16.08.2019 21:00:00 18,7 14,4 15,8 22,7 21,8 5 3 7 4 ZW 1015,2 40 0,0
16.08.2019 20:00:00 22,1 14,7 21,0 22,7 21,8 5 3 6 4 NW 1014,8 40 0,0
16.08.2019 19:00:00 24,7 12,6 26,2 22,5 21,8 6 3 18 10 WNW 1014,5 40 0,0
16.08.2019 18:00:00 25,4 12,6 27,5 22,3 21,8 4 2 21 11 Z 1015,1 40 0,0
16.08.2019 17:00:00 24,8 12,7 27,6 22,1 21,8 8 4 22 12 NW 1015,9 40 0,0
16.08.2019 16:00:00 25,0 12,9 27,6 21,8 21,8 5 3 19 10 NW 1016,4 40 0,0
16.08.2019 15:00:00 23,8 13,1 26,3 21,5 21,8 7 4 23 12 NW 1016,9 40 0,0
16.08.2019 14:00:00 23,4 13,0 25,6 21,2 21,8 10 5 23 13 N 1017,5 40 0,0
16.08.2019 13:00:00 23,0 13,5 26,1 21,0 21,8 6 3 21 12 ZO 1018,0 40 0,0
16.08.2019 12:00:00 22,0 12,8 26,8 20,8 21,8 5 3 15 8 ZO 1018,8 40 0,0
16.08.2019 11:00:00 21,2 13,6 24,2 20,8 21,8 3 2 13 7 NW 1019,5 40 0,0
16.08.2019 10:00:00 19,9 12,6 19,3 20,8 21,8 5 3 21 11 ZZO 1020,3 30 0,0
16.08.2019 09:00:00 17,7 13,4 16,4 20,9 21,9 8 5 16 9 ZZO 1020,7 30 0,0
16.08.2019 08:00:00 15,5 13,2 11,0 21,0 21,9 6 3 11 6 Z 1020,6 30 0,0
16.08.2019 07:00:00 12,4 11,6 9,7 21,1 21,9 2 1 5 3 OZO 1020,8 30 0,0
16.08.2019 06:00:00 13,0 11,7 10,5 21,2 21,9 3 2 13 7 ZZO 1020,5 30 0,0
16.08.2019 05:00:00 13,4 11,6 10,8 21,3 21,9 5 3 8 4 OZO 1020,8 30 0,0
16.08.2019 04:00:00 15,8 12,2 13,0 21,4 21,9 4 2 10 6 ZO 1020,4 44 0,0
16.08.2019 03:00:00 15,2 12,0 13,4 21,5 21,9 9 5 14 8 ZW 1020,6 59 0,0
16.08.2019 02:00:00 15,7 12,4 14,1 21,6 21,9 5 3 9 5 WZW 1020,7 59 0,0
16.08.2019 01:00:00 16,5 12,6 15,4 21,7 21,9 8 4 13 7 ZZW 1020,5 49 0,0
16.08.2019 00:00:00 17,9 11,9 16,1 21,8 21,9 0 0 23 12 N 1020,4 25 0,0
15.08.2019 23:00:00 18,1 11,6 16,5 21,9 21,9 16 9 30 16 W 1019,5 25 0,0
15.08.2019 22:00:00 18,3 11,8 16,8 22,0 22,0 18 10 29 16 W 1018,9 25 0,0
15.08.2019 21:00:00 19,2 12,2 17,6 22,0 22,0 10 6 27 15 W 1018,2 30 0,0
15.08.2019 20:00:00 20,1 14,0 19,8 22,0 22,0 14 8 38 21 WNW 1017,4 52 0,0
15.08.2019 19:00:00 20,4 14,1 20,4 22,0 22,0 19 10 37 20 NW 1016,8 30 0,0
15.08.2019 18:00:00 21,0 13,7 20,2 21,9 22,0 14 8 47 26 W 1016,6 30 0,0
15.08.2019 17:00:00 21,2 15,1 21,5 21,8 22,0 20 11 49 27 WNW 1016,0 30 0,0
15.08.2019 16:00:00 22,7 12,6 23,3 21,6 22,0 22 12 44 24 W 1015,3 30 0,0
15.08.2019 15:00:00 22,9 13,7 23,6 21,5 22,0 26 14 44 24 WZW 1015,7 30 0,0
15.08.2019 14:00:00 21,3 14,7 20,3 21,4 22,0 24 13 52 28 WZW 1016,3 30 0,0
15.08.2019 13:00:00 18,6 14,5 19,9 21,3 22,0 27 15 48 26 WZW 1016,6 30 0,0
15.08.2019 12:00:00 19,9 14,0 19,9 21,3 22,1 19 10 31 17 W 1016,1 30 0,0
15.08.2019 11:00:00 19,0 13,2 19,2 21,3 22,1 15 8 34 19 W 1016,1 30 0,0
15.08.2019 10:00:00 18,4 12,2 18,3 21,3 22,1 8 4 16 9 W 1016,1 30 0,0
15.08.2019 09:00:00 16,9 10,7 15,1 21,3 22,0 7 4 18 10 OZO 1016,2 30 0,0
15.08.2019 08:00:00 15,1 10,1 13,7 21,4 22,1 16 9 22 12 ZO 1016,2 30 0,0
15.08.2019 07:00:00 14,0 10,2 13,2 21,6 22,1 9 5 16 9 Z 1016,4 30 0,0
15.08.2019 06:00:00 13,6 10,2 12,5 21,7 22,1 8 4 17 9 Z 1016,1 30 0,0
15.08.2019 05:00:00 13,3 9,7 11,7 21,8 22,1 10 6 16 9 Z 1016,5 37 0,0
15.08.2019 04:00:00 13,2 9,8 11,9 22,0 22,1 11 6 18 10 Z 1016,7 39 0,0
15.08.2019 03:00:00 13,5 10,1 12,2 22,2 22,1 11 6 18 10 ZZO 1017,2 30 0,0
15.08.2019 02:00:00 13,9 10,1 11,9 22,3 22,1 11 6 15 8 Z 1017,0 34 0,0
15.08.2019 01:00:00 14,5 10,5 10,9 22,5 22,1 10 5 13 7 Z 1017,3 38 0,0
15.08.2019 00:00:00 14,1 10,7 11,2 22,6 22,1 5 3 13 7 ZZO 1017,2 40 0,0
14.08.2019 23:00:00 14,3 11,6 11,6 22,7 22,1 5 3 8 4 ZZO 1017,4 40 0,0
14.08.2019 22:00:00 16,1 12,1 12,7 22,9 22,1 4 2 9 5 ZZW 1017,4 40 0,0
14.08.2019 21:00:00 17,3 12,2 14,5 22,9 22,2 6 4 9 5 ZW 1016,9 40 0,0
14.08.2019 20:00:00 23,1 10,5 23,2 22,8 22,2 3 2 8 4 W 1016,2 40 0,0
14.08.2019 19:00:00 23,7 7,3 25,1 22,6 22,2 4 2 12 7 NW 1016,5 40 0,0
14.08.2019 18:00:00 23,7 8,5 26,8 22,4 22,2 7 4 16 9 W 1016,8 25 0,0
14.08.2019 17:00:00 23,7 7,7 26,7 22,1 22,2 10 5 18 10 WZW 1017,2 25 0,0
14.08.2019 16:00:00 23,6 8,4 28,0 21,8 22,2 5 3 17 9 Z 1017,7 30 0,0
14.08.2019 15:00:00 22,8 9,2 24,8 21,5 22,2 7 4 16 8 O 1018,3 30 0,0
14.08.2019 14:00:00 22,1 7,9 24,9 21,2 22,2 5 3 19 11 N 1018,9 30 0,0
14.08.2019 13:00:00 21,8 7,2 25,8 21,0 22,2 6 3 16 9 ZZO 1019,4 30 0,0
14.08.2019 12:00:00 20,8 9,7 26,2 20,9 22,3 7 4 21 11 ZZO 1020,0 30 0,0
14.08.2019 11:00:00 19,4 9,8 22,0 20,8 22,3 5 3 15 8 ZZO 1020,8 30 0,0
14.08.2019 10:00:00 17,5 9,6 16,6 20,8 22,2 5 3 14 8 ZO 1021,0 30 0,0
14.08.2019 09:00:00 15,0 10,6 13,7 21,0 22,3 6 4 11 6 Z 1021,1 30 0,0
14.08.2019 08:00:00 12,7 10,4 8,8 21,1 22,3 6 3 12 7 Z 1021,3 40 0,0
14.08.2019 07:00:00 9,2 8,3 7,0 21,3 22,3 5 3 8 4 ZZW 1021,4 30 0,0
14.08.2019 06:00:00 9,6 8,5 7,2 21,5 22,3 7 4 9 5 Z 1021,3 30 0,0
14.08.2019 05:00:00 9,3 8,4 7,4 21,7 22,3 6 3 8 4 ZZW 1021,4 30 0,0
14.08.2019 04:00:00 9,6 8,8 7,6 21,8 22,3 4 2 5 3 ZZW 1021,7 27 0,0
14.08.2019 03:00:00 10,1 9,0 8,2 22,0 22,3 2 1 6 4 ZW 1021,5 35 0,0
14.08.2019 02:00:00 10,8 9,4 8,9 22,1 22,3 4 2 6 3 WZW 1021,5 37 0,0
14.08.2019 01:00:00 12,5 10,0 10,6 22,3 22,3 2 1 6 3 WNW 1021,4 44 0,0
14.08.2019 00:00:00 14,8 8,9 12,1 22,5 22,4 3 2 11 6 ZZO 1021,0 60 0,0
13.08.2019 23:00:00 14,5 8,4 12,4 22,6 22,4 3 2 17 9 OZO 1020,7 60 0,0

tt = temperatuur
td = dauwpunt
tt 5cm = temperatuur 5cm
tt -20cm = temperatuur -20cm
tt -100cm = temperatuur -100cm
ff = windsnelheid
fx = windstoten
dd = windrichting
ppp = luchtdruk
vv = zicht
rr = neerslag

Weerstations in de omgeving